星链-34580(STARLINK-34580)

导读 | 豆包AI

STARLINK-34580是美国SpaceX公司星链星座的成员卫星,于2025年9月26日发射入轨。星链星座旨在为全球提供高速宽带互联网服务,尤其覆盖偏远地区。该卫星属于低轨通信卫星,采用平板设计,搭载Ku/Ka波段通信载荷,配备氪工质霍尔推进器,具备自主避撞能力,寿命末期会主动离轨坠入大气层焚毁,设计使用寿命约5-7年,是星链全球互联网组网的重要组成部分。

Basic Information
目录编号:
65808
目录名称:
STARLINK-34580
国际标识:
2025-218T
轨道中心:
EARTH
卫星名称:
星链-34580
卫星全名:
星链-34580(STARLINK-34580)
卫星状态:
在轨 (已飞行215 天)
发射日期:
2025-09-26 UTC
国别 :
美国 (US)
星等 :
--
Orbit Information
数据来源 国际轨道数据 AOE轨道数据
星历时间 2026-04-29T11:44:28+0800
9小时前
查看轨道信息
2026-04-23T21:00:00+0800
5天前
查看轨道信息
半长轴 6927.635km 6927.67km
偏心率 0.0002299 0.000177
轨道倾角 97.564° 97.588°
近地点辐角 78.928° 79.487°
升交点赤经 342.666° 337.149°
平近点角 281.221° 108.870°
近地点 547.905km 548.306km
远地点 551.091km 550.76km
周期 95.639分钟 95.640分钟
每日圈数 15.056546 15.056432
Detailed Information
固有亮度:
5
最大亮度:
2.5
卫星平台:
Starlink V1.0
覆盖范围:
全球
运营商:
太空探索技术公司
运营商所在国:
美国
制造商(研发单位):
太空探索技术公司
制造商所在国:
美国
使用方式:
暂无
Satellite Introduction
Starlink 计划是 SpaceX 推出的全球卫星互联网项目,通过发射低轨道卫星,为全球尤其是偏远地区提供高速、低延迟的互联网服务。自 2019 年起,Starlink 已部署数千颗卫星,旨在缩小全球数字鸿沟,推动互联网普及。该项目还为军事、航空等行业提供通信支持,带来广泛经济效益。
2D Orbit Map
3D Orbit Map
Orbit Altitude Analysis Chart
Orbit Inclination Analysis Chart
Orbit Comprehensive Analysis Chart
View Comprehensive Chart